Location: Chervonnoye
(48.6000°N, 34.4000°E)
Time: 00:21:28
(UTC+00:00)

KAITUO 1B - Pass Details

Date: 28 November 2021
Orbit: 486 x 507 km, 97.4° (Epoch: 16 January)

Event Time Altitude Azimuth Distance (km) Brightness Sun altitude
Rises 14:24:27 0° 136° (SE) 2,589 ? -5.7°
Reaches altitude 10° 14:26:45 10° 123° (ESE) 1,714 ? -6.0°
Maximum altitude 14:29:48 25° 67° (ENE) 1,054 ? -6.5°
Drops below altitude 10° 14:32:54 10° 11° (N) 1,736 ? -6.9°
Sets 14:35:15 0° 358° (N) 2,629 ? -7.3°
